Terminal Aerodrome Forecast
Issued by NWS Jackson, MS

Home | Current Version | Previous Version | Text Only | Print | Product List | Glossary On
Versions: 1 2 3 4 5 6 7 8 9 10 11 12 13 14
000
FTUS44 KJAN 301100
TAFMEI
TAF
KMEI 301120Z 3012/3112 02005KT P6SM SCT250
     FM310400 00000KT 6SM BR BKN250=

USA.gov is the U.S. government's official web portal to all federal, state and local government web resources and services.